Total_Precipitation_Accumulation
0.00 0.00 0.00 0.00 0.00 0.00 0.00 0.00 0.00 0.00 0.00 0.00 0.01 0.03 0.03 0.03 0.03 0.04 0.05 0.05 0.10 0.16 0.26 0.54 0.98 1.50 1.82 1.91 1.71 1.64 1.51 1.35 1.16 1.08 1.08 1.20 1.36 1.40 1.37 1.33 1.26 1.28 1.34 1.44
0.00 0.00 0.00 0.00 0.00 0.00 0.00 0.00 0.00 0.01 0.00 0.01 0.02 0.03 0.05 0.05 0.05 0.07 0.11 0.11 0.15 0.23 0.34 0.64 0.96 1.27 1.49 1.70 1.80 1.78 1.55 1.53 1.57 1.68 1.88 2.15 2.34 2.30 2.19 2.10 2.04 2.01 1.96 1.89
0.00 0.00 0.00 0.00 0.00 0.00 0.00 0.00 0.01 0.02 0.02 0.02 0.02 0.06 0.08 0.08 0.09 0.08 0.11 0.15 0.19 0.25 0.39 0.62 0.75 0.92 1.15 1.46 1.70 1.77 1.80 1.98 2.26 2.52 2.89 3.22 3.17 3.02 2.98 2.78 2.71 2.54 2.31 2.14
0.00 0.00 0.00 0.00 0.00 0.00 0.00 0.00 0.00 0.01 0.02 0.02 0.02 0.09 0.13 0.12 0.12 0.12 0.12 0.13 0.18 0.24 0.31 0.49 0.67 0.82 1.01 1.36 1.69 1.90 2.09 2.39 2.80 3.13 3.40 3.60 3.61 3.52 3.43 3.12 2.84 2.52 2.22 2.04
0.00 0.00 0.00 0.00 0.00 0.00 0.00 0.01 0.01 0.01 0.01 0.02 0.03 0.09 0.24 0.22 0.16 0.14 0.13 0.12 0.14 0.21 0.25 0.35 0.49 0.65 0.87 1.19 1.57 1.87 2.12 2.56 3.00 3.38 3.59 3.75 3.83 3.71 3.43 2.93 2.45 2.12 1.90 1.72
0.00 0.00 0.00 0.00 0.00 0.00 0.00 0.00 0.01 0.01 0.02 0.03 0.03 0.09 0.28 0.39 0.26 0.15 0.13 0.13 0.15 0.17 0.22 0.32 0.43 0.54 0.74 0.97 1.28 1.57 1.84 2.40 2.96 3.39 3.66 3.82 3.81 3.51 3.00 2.47 2.03 1.76 1.59 1.44
0.01 0.01 0.01 0.00 0.00 0.00 0.00 0.00 0.01 0.02 0.02 0.03 0.03 0.11 0.34 0.44 0.34 0.20 0.15 0.17 0.19 0.17 0.20 0.27 0.39 0.48 0.67 0.90 1.16 1.43 1.71 2.07 2.47 2.76 2.89 2.96 2.94 2.77 2.55 2.23 1.88 1.58 1.37 1.18
0.04 0.03 0.02 0.01 0.01 0.00 0.00 0.01 0.02 0.03 0.02 0.03 0.09 0.26 0.44 0.41 0.33 0.24 0.20 0.18 0.19 0.19 0.21 0.27 0.40 0.51 0.61 0.77 1.01 1.32 1.54 1.71 1.89 2.02 2.10 2.01 1.96 1.89 1.77 1.54 1.28 1.05 0.85 0.70
0.07 0.07 0.03 0.01 0.00 0.01 0.01 0.01 0.01 0.02 0.02 0.07 0.21 0.39 0.58 0.51 0.38 0.28 0.25 0.23 0.23 0.24 0.27 0.36 0.45 0.53 0.61 0.69 0.82 0.98 1.11 1.22 1.24 1.18 1.17 1.17 1.15 1.09 0.97 0.82 0.65 0.54 0.45 0.36
0.08 0.07 0.04 0.02 0.01 0.01 0.01 0.01 0.02 0.03 0.05 0.11 0.23 0.41 0.68 0.76 0.59 0.44 0.35 0.30 0.29 0.30 0.35 0.41 0.48 0.52 0.55 0.59 0.65 0.68 0.70 0.71 0.71 0.71 0.70 0.69 0.69 0.65 0.60 0.54 0.49 0.43 0.36 0.28
0.07 0.08 0.07 0.03 0.04 0.06 0.04 0.03 0.03 0.04 0.05 0.11 0.27 0.60 0.82 0.96 0.84 0.66 0.54 0.43 0.36 0.36 0.43 0.50 0.52 0.49 0.47 0.47 0.49 0.51 0.52 0.51 0.50 0.51 0.50 0.48 0.45 0.41 0.39 0.38 0.35 0.31 0.26 0.20
0.08 0.08 0.13 0.10 0.07 0.06 0.05 0.05 0.05 0.07 0.10 0.12 0.30 0.85 0.98 1.19 1.10 0.89 0.71 0.54 0.46 0.45 0.49 0.52 0.50 0.45 0.41 0.43 0.45 0.45 0.46 0.47 0.46 0.43 0.40 0.37 0.33 0.30 0.27 0.26 0.25 0.22 0.20 0.18
0.08 0.11 0.19 0.22 0.18 0.12 0.09 0.06 0.08 0.08 0.10 0.15 0.32 0.89 1.09 1.14 1.08 0.82 0.64 0.58 0.62 0.66 0.66 0.62 0.56 0.47 0.41 0.40 0.39 0.37 0.37 0.35 0.30 0.25 0.23 0.23 0.24 0.23 0.23 0.22 0.20 0.19 0.18 0.17
0.07 0.17 0.31 0.45 0.41 0.23 0.18 0.11 0.08 0.10 0.16 0.21 0.38 0.71 0.89 1.00 0.89 0.75 0.69 0.73 0.83 0.84 0.71 0.60 0.54 0.46 0.41 0.38 0.35 0.33 0.30 0.26 0.21 0.17 0.16 0.16 0.17 0.18 0.19 0.18 0.17 0.16 0.15 0.15
0.07 0.18 0.23 0.24 0.18 0.19 0.21 0.17 0.15 0.16 0.20 0.33 0.51 0.66 0.82 1.04 1.09 1.00 0.88 0.84 0.87 0.84 0.77 0.70 0.59 0.53 0.45 0.38 0.33 0.30 0.28 0.23 0.18 0.15 0.15 0.16 0.16 0.16 0.17 0.17 0.17 0.16 0.14 0.12
0.06 0.14 0.17 0.21 0.18 0.17 0.22 0.23 0.22 0.22 0.31 0.45 0.58 0.83 1.09 1.22 1.24 1.17 1.06 1.00 0.99 0.91 0.85 0.78 0.67 0.57 0.50 0.46 0.44 0.39 0.34 0.28 0.24 0.23 0.22 0.20 0.17 0.16 0.16 0.16 0.16 0.15 0.13 0.11
0.06 0.12 0.19 0.23 0.18 0.23 0.43 0.41 0.37 0.37 0.41 0.52 0.63 0.82 1.03 1.15 1.23 1.27 1.21 1.11 1.07 1.01 0.98 0.90 0.79 0.69 0.63 0.57 0.52 0.46 0.41 0.36 0.32 0.29 0.24 0.20 0.16 0.15 0.15 0.13 0.13 0.12 0.10 0.08
0.06 0.11 0.17 0.19 0.27 0.48 0.58 0.38 0.36 0.43 0.37 0.39 0.50 0.59 0.74 0.91 0.98 1.03 1.10 1.13 1.15 1.13 1.07 0.95 0.85 0.80 0.76 0.68 0.60 0.51 0.41 0.33 0.28 0.23 0.20 0.16 0.14 0.13 0.12 0.10 0.09 0.07 0.06 0.06
0.04 0.12 0.24 0.26 0.35 0.51 0.53 0.28 0.26 0.43 0.49 0.40 0.39 0.44 0.52 0.56 0.69 0.86 0.91 0.93 1.03 1.05 1.01 0.92 0.82 0.77 0.74 0.66 0.54 0.41 0.31 0.25 0.20 0.16 0.14 0.12 0.10 0.07 0.06 0.06 0.06 0.06 0.06 0.07
0.04 0.10 0.28 0.36 0.48 0.58 0.50 0.20 0.18 0.39 0.64 0.51 0.49 0.48 0.56 0.61 0.73 0.75 0.72 0.76 0.84 0.86 0.83 0.81 0.78 0.71 0.61 0.50 0.36 0.26 0.21 0.17 0.14 0.12 0.09 0.07 0.05 0.05 0.05 0.06 0.07 0.07 0.07 0.06
0.21 0.23 0.31 0.43 0.60 0.60 0.29 0.15 0.24 0.54 0.64 0.52 0.57 0.62 0.65 0.72 0.72 0.60 0.56 0.64 0.71 0.73 0.73 0.69 0.64 0.57 0.46 0.33 0.24 0.20 0.17 0.13 0.08 0.05 0.04 0.04 0.03 0.03 0.03 0.05 0.07 0.07 0.07 0.08
0.40 0.43 0.46 0.54 0.64 0.63 0.25 0.18 0.37 0.46 0.35 0.42 0.51 0.50 0.53 0.52 0.52 0.52 0.53 0.60 0.63 0.67 0.67 0.61 0.53 0.42 0.31 0.21 0.17 0.16 0.13 0.07 0.03 0.02 0.03 0.03 0.02 0.01 0.02 0.05 0.08 0.08 0.09 0.09
0.44 0.49 0.53 0.58 0.65 0.48 0.25 0.19 0.19 0.24 0.29 0.33 0.40 0.39 0.43 0.47 0.47 0.47 0.51 0.57 0.60 0.58 0.52 0.43 0.34 0.27 0.21 0.15 0.12 0.11 0.08 0.04 0.03 0.03 0.04 0.04 0.03 0.03 0.03 0.04 0.07 0.07 0.08 0.08
0.50 0.42 0.47 0.51 0.53 0.39 0.26 0.18 0.16 0.17 0.22 0.26 0.32 0.38 0.42 0.47 0.47 0.46 0.46 0.47 0.47 0.43 0.34 0.26 0.19 0.17 0.14 0.10 0.08 0.07 0.04 0.02 0.04 0.06 0.05 0.06 0.07 0.07 0.06 0.06 0.04 0.04 0.06 0.06
0.37 0.48 0.64 0.68 0.64 0.48 0.35 0.25 0.20 0.22 0.26 0.31 0.36 0.39 0.40 0.39 0.42 0.43 0.42 0.37 0.30 0.23 0.18 0.14 0.12 0.11 0.08 0.06 0.05 0.04 0.03 0.03 0.06 0.06 0.06 0.07 0.06 0.06 0.07 0.07 0.03 0.02 0.03 0.02
0.17 0.37 0.71 0.84 0.71 0.61 0.57 0.48 0.42 0.47 0.53 0.46 0.38 0.36 0.38 0.35 0.32 0.26 0.23 0.18 0.14 0.11 0.10 0.08 0.07 0.06 0.04 0.04 0.03 0.02 0.01 0.02 0.05 0.06 0.05 0.05 0.04 0.04 0.04 0.07 0.07 0.02 0.01 0.01